Other Public Products
Issued by NWS Grand Forks, ND

Home | Current Version | Previous Version | Graphics & Text | Print | Product List | Glossary On
Versions: 1 2 3 4 5 6 7 8 9 10 11 12 13 14 15 16 17 18 19 20 21 22 23 24 25 26 27 28 29 30 31 32 33 34 35 36 37 38 39 40 41 42 43 44 45 46 47 48 49 50
000
FPUS83 KFGF 270331
OPUFGF
PRAIRIE TO PINES WEATHER ROUNDUP
NATIONAL WEATHER SERVICE EASTERN NORTH DAKOTA/GRAND FORKS ND
1000 PM CDT TUE MAY 26 2015

 **SATELLITE DATA USED TO AUGMENT SKY COVER AT AUTOMATED STATIONS**
 *****  WEATHER ACROSS EASTERN NORTH DAKOTA  *****

CITY           SKY/WX    TMP DP  RH WIND       PRES   REMARKS
GRAND FORKS    PTCLDY    64  50  60 W6        29.74R
GRAND FORKS AF MOCLDY    64  54  68 W3        29.76R
GRAND CITY NWS   N/A     61 N/A N/A W2          N/A
BUXTON           N/A     71  51  50 SW5         N/A
DEVILS LAKE    PTCLDY    64  46  52 W9        29.83R
FARGO          PTCLDY    66  53  63 SW8       29.77R
WAHPETON ARPT  MOCLDY    63  54  72 S3        29.81R
$$

 *****  WEATHER ACROSS CENTRAL AND WESTERN NORTH DAKOTA  *****

CITY           SKY/WX    TMP DP  RH WIND       PRES   REMARKS
JAMESTOWN      PTCLDY    66  46  48 NW10      29.81S
BISMARCK       CLEAR     66  51  58 W5        29.89R
MINOT          PTCLDY    64  46  52 S9        29.86S
MINOT AFB      PTCLDY    62  57  86 SW7       29.84S
GARRISON         N/A     65  49  56 NE6       29.89R
WILLISTON      PTCLDY    69  43  38 NE6       29.88R
DICKINSON      PTCLDY    57  45  64 S6        29.91R
HETTINGER      PTCLDY    56  48  74 CALM      29.95R
$$

 *****  OTHER OBSERVATIONS NORTHEAST NORTH DAKOTA  *****

CITY           SKY/WX    TMP DP  RH WIND       PRES   REMARKS
WALHALLA         N/A     72  45  37 MISG      29.79R
LANGDON        FAIR      64  43  45 N9        29.82R
CAVALIER       FAIR      72  41  33 NW10      29.77R
GRAFTON        FAIR      72  45  37 N7        29.76R
CANDO          FAIR      64  43  45 W8        29.84R
FORT TOTTEN      N/A     66  46  47 W2        29.95S
ROLLA          FAIR      63  41  45 N13       29.86R
RUGBY          NOT AVBL
 ***** THE ABOVE OBSERVATIONS ARE NON NWS ARE NOT QUALITY
        CONTROLLED AND MAY MIS-REPORT RAIN FOR SNOW...
$$

 *****  OTHER OBSERVATIONS SOUTHEAST NORTH DAKOTA *****

CITY           SKY/WX    TMP DP  RH WIND       PRES   REMARKS
COOPERSTOWN    NOT AVBL
VALLEY CITY    FAIR      64  46  52 W9        29.82R
OAKES            N/A     59  55  88 W9        29.85R
GWINNER        NOT AVBL
BUFFALO        NOT AVBL
WYNDMERE         N/A     63  54  72 W5          N/A
 ***** THE ABOVE OBSERVATIONS ARE NON NWS ARE NOT QUALITY
       CONTROLLED AND MAY MIS-REPORT RAIN FOR SNOW...
$$

  *****  WEATHER ACROSS NORTHERN MINNESOTA  *****

CITY           SKY/WX    TMP DP  RH WIND       PRES   REMARKS
FLAG ISLAND    PTCLDY    68  48  49 CALM      29.73S
WARROAD        PTCLDY    64  55  72 CALM      29.77R
ROSEAU         CLEAR     64  52  63 S3        29.77R
HALLOCK        PTCLDY    66  45  45 CALM      29.75R
THF RVR FALLS  PTCLDY    66  52  59 SE7       29.78R
HALSTAD          N/A     61  55  81 S8          N/A
FOSSTON        MOCLDY    61  52  72 S6        29.80S
BAUDETTE       MOCLDY    66  53  63 W3        29.75R
WASKISH        CLOUDY    64  55  72 CALM      29.77R
CROOKSTON      PTCLDY    63  54  72 S5        29.77R
$$
  *****  WEATHER ACROSS CENTRAL AND WEST MINNESOTA  *****

CITY           SKY/WX    TMP DP  RH WIND       PRES   REMARKS
BEMIDJI        CLOUDY    64  49  59 S6        29.77F
PARK RAPIDS    CLOUDY    63  54  72 SW5       29.80R
WADENA         CLOUDY    61  55  82 S3        29.82R
DETROIT LAKES  CLOUDY    63  55  77 CALM      29.83R
MOORHEAD       MOCLDY    64  54  68 S3        29.80R
FERGUS FALLS   MOCLDY    64  55  72 S3        29.82R
ELBOW LAKE     FAIR      63  55  74 S3        29.82R
MORRIS MN      CLOUDY    61  57  88 CALM      29.82R
STAPLES        CLOUDY    57  54  88 S3        29.83R
WHEATON        CLOUDY    61  54  77 SW3       29.83R
$$
  *****  WEATHER ELSEWHERE ACROSS MINNESOTA  *****

CITY           SKY/WX    TMP DP  RH WIND       PRES   REMARKS
DULUTH         CLOUDY    57  50  77 CALM      29.79R
INTRNTL FALLS  MOCLDY    58  52  80 CALM      29.75R
ELY            NOT AVBL
CLOQUET        CLOUDY    55  50  82 CALM      29.80R
BRAINERD       CLOUDY    58  54  86 CALM      29.82R
HIBBING        CLOUDY    57  50  77 CALM      29.79R
ALEXANDRIA     CLOUDY    60  53  77 SW3       29.84R
SAINT CLOUD    CLOUDY    57  55  93 NW5       29.81R
MINNEAPOLIS    CLOUDY    58  56  93 SW3       29.80R
$$

  *****  WEATHER ACROSS SOUTH DAKOTA  *****

CITY           SKY/WX    TMP DP  RH WIND       PRES   REMARKS
SIOUX FALLS    CLOUDY    60  52  74 W6        29.87R
BROOKINGS      CLOUDY    61  54  77 W3        29.89R
WATERTOWN      CLOUDY    64  51  62 N12       29.86R
HURON          CLOUDY    66  50  56 N5        29.87R
SISSETON         N/A     64  49  57 NW7       29.80R
ABERDEEN       CLOUDY    61  55  81 W6        29.86R
MITCHELL       MOCLDY    66  54  65 NW10      29.89R
PIERRE         CLEAR     66  47  50 CALM      29.90R
MOBRIDGE       CLEAR     63  54  72 SE3       29.89R
RAPID CITY     CLOUDY    59  50  72 W5        29.97R
$$

  *****  SOME WEATHER IN NEARBY STATES *****

CITY           SKY/WX    TMP DP  RH WIND       PRES   REMARKS
GLASGOW MT     PTCLDY    70  40  33 CALM      29.86S
GREAT FALLS MT PTCLDY    57  49  74 NE7       29.94S
CHEYENNE WY    MOCLDY    53  45  74 S6        30.07S
SCOTTSBLUFF NE PTCLDY    60  52  74 MISG      30.00R
OMAHA NE       MOCLDY    61  56  83 CALM      29.87R
DES MOINES IA  MOCLDY    63  59  87 W7        29.85R
DAVENPORT IA   PTCLDY    66  60  81 SW9       29.82R
CHICAGO IL     PTCLDY    67  60  78 S8        29.84R
EAU CLAIRE WI  LGT RAIN  58  56  93 NW7       29.74R
LA CROSSE WI   CLOUDY    63  58  83 W12G20    29.75R
$$

  *****  SOME NATIONAL WEATHER *****

CITY           SKY/WX    TMP DP  RH WIND       PRES   REMARKS
LA GUARDIA NY  MOCLDY    75  60  59 SW14      30.16R
RALEIGH NC     MOCLDY    76  69  79 S10       30.23R
ATLANTA GA     MOCLDY    66  64  94 S3        30.24R
NEW ORLEANS LA PTCLDY    78  71  79 S3        30.11R
OKLAHOMA CITY  MOCLDY    71  68  90 S10       29.94F
ALBUQUERQUE NM PTCLDY    66  43  43 S14G29    30.09
SALT LAKE CITY MOCLDY    60  50  69 CALM      30.02S
LOS ANGELES CA MOCLDY    59  55  87 W12       29.98S
BOISE ID       CLEAR     70  44  39 S7        29.85F
SEATTLE WA     MOCLDY    67  50  54 NW3       30.02S
$$

*** WEATHER ACROSS MANITOBA...SASKATCHEWAN AND ONTARIO ***
                ***ONTARIO***

CITY           SKY/WX    TMP DP  RH WIND       PRES   REMARKS
GERALDTON      CLOUDY    61  52  72 SE5       29.76R
THUNDER BAY    MOCLDY    55  52  88 CALM      29.76S
SIOUX LOOKOUT  MOCLDY    66  50  55 NW6       29.74R
TORONTO        PTCLDY    70  61  73 SE8       29.96F
BIG TROUT LK   LGT RAIN  39  36  87 NE7       29.88R
PICKLE LAKE    NOT AVBL
DRYDEN         MOCLDY    68  46  45 W7        29.74S
KENORA         MOCLDY    64  50  59 S5        29.75R
$$
                *** MANITOBA***

CITY           SKY/WX    TMP DP  RH WIND       PRES   REMARKS
BRANDON        CLOUDY    66  46  48 E5        29.82R
DAUPHIN        PTCLDY    57  50  77 N13G18    29.87R
ISLAND LAKE    MOCLDY    43  36  75 NE12G17   29.92R
PILOT MOUND      N/A     66  43  42 NW13        N/A
THE PAS        PTCLDY    46  37  71 VRB2      29.98R
THOMPSON       PTCLDY    36  28  75 CALM      30.00R
WINNIPEG       PTCLDY    66  52  59 N9        29.78R
LYNN LAKE      CLEAR     45  21  39 N6        30.00R
CHURCHILL      PTCLDY    32  25  74 SE7       30.01S
GILLAM         CLEAR     34  23  64 NE6       30.03R
$$
                ***SASKATCHEWAN***

CITY           SKY/WX    TMP DP  RH WIND       PRES   REMARKS
ESTEVAN        PTCLDY    64  52  63 S5        29.87R
KINDERSLEY     TSTM      64  45  48 N21G47    29.91R
LLOYDMINSTER   PTCLDY    63  36  36 NE9       29.95R
PRINCE ALBERT  MOCLDY    57  41  54 NE14G20   29.95R
REGINA         MOCLDY    68  41  37 W8        29.85R
YORKTON        CLEAR     61  48  63 N12       29.86R


USA.gov is the U.S. government's official web portal to all federal, state and local government web resources and services.